User: anonymous   Login
Location: Unspecified
(0.0000°N, 0.0000°E)
Time: 13:39:57
(UTC+01:00)
Language:

Cosmos 407 Rocket - Orbit

View from above orbital plane
View from above orbital plane
View from above satellite
View from above satellite

Ground track
Ground track

The orbit data is extracted from the following two-line orbital elements,

1 05175U 71035B   15060.61881647  .00000227  00000-0  83861-4 0  9998
2 05175 074.0492 311.9389 0029778 006.5898 353.5641 14.37638929294429
Epoch (UTC): 01 March 2015 14:51:05
Eccentricity: 0.0029778
inclination: 74.0492°
perigee height: 745 km
apogee height: 787 km
right ascension of ascending node: 311.9389°
argument of perigee: 6.5898°
revolutions per day: 14.37638929
mean anomaly at epoch: 353.5641°
orbit number at epoch: 29442

The dashed part of the orbit path shows where the satellite is in the earth's shadow,  

DLR